When you browse on this site, cookies collect data to enhance your experience and personalize the content and advertising you see.
Visit our Privacy Policy to learn more. By continuing to use the site, you agree to this use of cookies and data.

Hourly Weather Arneburg

Today, 9 August, Sunday

Time Temperature Precipitation Wind Pressure Humidity
00:00 +24°C° 0 mm 2 mps 761 mmHg 76%
01:00 +24°C° 0 mm 2 mps 761 mmHg 77%
02:00 +23°C° 0 mm 2 mps 761 mmHg 77%
03:00 +23°C° 0 mm 2 mps 761 mmHg 78%
04:00 +23°C° 0 mm 2 mps 761 mmHg 78%
05:00 +23°C° 0 mm 2 mps 761 mmHg 76%
06:00 +24°C° 0 mm 2 mps 761 mmHg 75%
07:00 +24°C° 0 mm 2 mps 761 mmHg 73%
08:00 +26°C° 0 mm 2 mps 761 mmHg 68%
09:00 +28°C° 0 mm 2 mps 761 mmHg 62%
10:00 +30°C° 0 mm 2 mps 761 mmHg 56%
11:00 +31°C° 0 mm 2 mps 761 mmHg 51%
12:00 +32°C° 0 mm 2 mps 761 mmHg 47%
13:00 +34°C° 0 mm 2 mps 760 mmHg 43%
14:00 +34°C° 0 mm 2 mps 760 mmHg 42%
15:00 +35°C° 0 mm 2 mps 760 mmHg 41%
16:00 +35°C° 0 mm 2 mps 760 mmHg 40%
17:00 +32°C° 0 mm 2 mps 760 mmHg 46%
18:00 +31°C° 0 mm 2 mps 760 mmHg 53%
19:00 +29°C° 0 mm 2 mps 760 mmHg 59%
20:00 +28°C° 0.1 mm 3 mps 760 mmHg 66%
21:00 +26°C° 0.1 mm 3 mps 760 mmHg 72%
22:00 +24°C° 0.1 mm 3 mps 760 mmHg 79%
23:00 +24°C° 0.2 mm 3 mps 760 mmHg 82%

Tomorrow, 10 August, Monday

Time Temperature Precipitation Wind Pressure Humidity
00:00 +23°C° 0.2 mm 2 mps 760 mmHg 85%
01:00 +21°C° 0.2 mm 2 mps 760 mmHg 88%
02:00 +21°C° 0 mm 2 mps 760 mmHg 88%
03:00 +21°C° 0 mm 2 mps 760 mmHg 88%
04:00 +20°C° 0 mm 2 mps 760 mmHg 89%
05:00 +21°C° 0.1 mm 2 mps 760 mmHg 86%
06:00 +23°C° 0.1 mm 2 mps 760 mmHg 83%
07:00 +24°C° 0.1 mm 2 mps 760 mmHg 80%
08:00 +26°C° 0 mm 2 mps 760 mmHg 72%
09:00 +28°C° 0 mm 3 mps 760 mmHg 64%
10:00 +30°C° 0 mm 3 mps 760 mmHg 56%
11:00 +31°C° 0 mm 3 mps 760 mmHg 51%
12:00 +33°C° 0 mm 3 mps 760 mmHg 46%
13:00 +34°C° 0 mm 3 mps 759 mmHg 41%
14:00 +34°C° 0 mm 3 mps 759 mmHg 41%
15:00 +34°C° 0 mm 3 mps 759 mmHg 40%
16:00 +34°C° 0 mm 3 mps 759 mmHg 39%
17:00 +33°C° 0 mm 3 mps 759 mmHg 45%
18:00 +31°C° 0 mm 3 mps 759 mmHg 51%
19:00 +29°C° 0 mm 3 mps 759 mmHg 57%
20:00 +28°C° 0.2 mm 3 mps 759 mmHg 63%
21:00 +26°C° 0.2 mm 3 mps 760 mmHg 69%
22:00 +25°C° 0.2 mm 4 mps 760 mmHg 75%
23:00 +24°C° 0.5 mm 3 mps 760 mmHg 79%

Day after tomorrow, 11 August, Tuesday

Time Temperature Precipitation Wind Pressure Humidity
00:00 +22°C° 0.5 mm 3 mps 760 mmHg 83%
01:00 +21°C° 0.5 mm 2 mps 760 mmHg 88%
02:00 +21°C° 0 mm 2 mps 760 mmHg 88%
03:00 +21°C° 0 mm 2 mps 760 mmHg 88%
04:00 +21°C° 0 mm 2 mps 760 mmHg 88%
05:00 +23°C° 0 mm 2 mps 760 mmHg 86%
06:00 +22°C° 0 mm 3 mps 760 mmHg 83%
07:00 +24°C° 0 mm 3 mps 760 mmHg 80%
08:00 +26°C° 0 mm 3 mps 760 mmHg 73%
09:00 +27°C° 0 mm 3 mps 761 mmHg 66%
10:00 +29°C° 0 mm 3 mps 761 mmHg 59%
11:00 +30°C° 0 mm 3 mps 761 mmHg 54%
12:00 +32°C° 0 mm 4 mps 761 mmHg 48%
13:00 +33°C° 0 mm 4 mps 761 mmHg 43%
14:00 +33°C° 0 mm 4 mps 761 mmHg 42%
15:00 +33°C° 0 mm 4 mps 760 mmHg 41%
16:00 +33°C° 0 mm 4 mps 760 mmHg 40%
17:00 +31°C° 0 mm 3 mps 760 mmHg 45%
18:00 +29°C° 0 mm 3 mps 760 mmHg 51%
19:00 +28°C° 0 mm 3 mps 760 mmHg 56%
20:00 +27°C° 0 mm 3 mps 760 mmHg 58%
21:00 +25°C° 0 mm 3 mps 761 mmHg 61%
22:00 +23°C° 0 mm 4 mps 761 mmHg 64%
23:00 +22°C° 0 mm 3 mps 761 mmHg 66%

12 August, Wednesday

Time Temperature Precipitation Wind Pressure Humidity
00:00 +22°C° 0 mm 3 mps 761 mmHg 68%
01:00 +21°C° 0 mm 3 mps 761 mmHg 70%
02:00 +21°C° 0 mm 3 mps 761 mmHg 72%
03:00 +21°C° 0 mm 3 mps 761 mmHg 73%
04:00 +20°C° 0 mm 3 mps 761 mmHg 74%
05:00 +21°C° 0 mm 3 mps 761 mmHg 73%
06:00 +22°C° 0 mm 3 mps 761 mmHg 72%
07:00 +23°C° 0 mm 4 mps 761 mmHg 71%
08:00 +25°C° 0 mm 4 mps 761 mmHg 64%
09:00 +27°C° 0 mm 4 mps 761 mmHg 58%
10:00 +29°C° 0 mm 4 mps 761 mmHg 51%
11:00 +30°C° 0 mm 4 mps 761 mmHg 47%
12:00 +32°C° 0 mm 4 mps 761 mmHg 43%
13:00 +33°C° 0 mm 5 mps 761 mmHg 40%
14:00 +33°C° 0 mm 5 mps 760 mmHg 39%
15:00 +33°C° 0 mm 4 mps 760 mmHg 39%
16:00 +33°C° 0 mm 4 mps 760 mmHg 38%
17:00 +30°C° 0 mm 4 mps 760 mmHg 43%
18:00 +29°C° 0 mm 4 mps 760 mmHg 47%
19:00 +27°C° 0 mm 3 mps 760 mmHg 52%
20:00 +26°C° 0 mm 4 mps 760 mmHg 52%
21:00 +23°C° 0 mm 4 mps 760 mmHg 52%
22:00 +22°C° 0 mm 4 mps 760 mmHg 53%
23:00 +21°C° 0 mm 3 mps 760 mmHg 54%

13 August, Thursday

Time Temperature Precipitation Wind Pressure Humidity
00:00 +20°C° 0 mm 3 mps 760 mmHg 55%
01:00 +19°C° 0 mm 3 mps 760 mmHg 56%
02:00 +19°C° 0 mm 3 mps 760 mmHg 60%
03:00 +18°C° 0 mm 3 mps 760 mmHg 64%
04:00 +18°C° 0 mm 2 mps 759 mmHg 67%
05:00 +19°C° 0 mm 3 mps 759 mmHg 68%
06:00 +19°C° 0 mm 3 mps 759 mmHg 68%
07:00 +20°C° 0 mm 3 mps 759 mmHg 68%
08:00 +22°C° 0 mm 4 mps 759 mmHg 62%
09:00 +25°C° 0 mm 4 mps 759 mmHg 55%
10:00 +28°C° 0 mm 4 mps 759 mmHg 49%
11:00 +29°C° 0 mm 3 mps 758 mmHg 44%
12:00 +30°C° 0 mm 3 mps 758 mmHg 39%
13:00 +31°C° 0 mm 3 mps 758 mmHg 34%
14:00 +31°C° 0 mm 3 mps 758 mmHg 33%
15:00 +32°C° 0 mm 2 mps 757 mmHg 32%
16:00 +32°C° 0 mm 2 mps 757 mmHg 31%
17:00 +30°C° 0 mm 2 mps 757 mmHg 36%
18:00 +29°C° 0 mm 2 mps 757 mmHg 41%
19:00 +27°C° 0 mm 2 mps 757 mmHg 46%
20:00 +26°C° 0 mm 2 mps 757 mmHg 49%
21:00 +24°C° 0 mm 3 mps 757 mmHg 52%
22:00 +22°C° 0 mm 3 mps 757 mmHg 54%
23:00 +21°C° 0 mm 2 mps 757 mmHg 57%

14 August, Friday

Time Temperature Precipitation Wind Pressure Humidity
00:00 +21°C° 0 mm 2 mps 757 mmHg 60%
01:00 +20°C° 0 mm 2 mps 757 mmHg 63%
02:00 +20°C° 0 mm 2 mps 757 mmHg 66%
03:00 +20°C° 0 mm 1 mps 757 mmHg 69%
04:00 +20°C° 0 mm 1 mps 757 mmHg 73%
05:00 +21°C° 0 mm 1 mps 757 mmHg 72%
06:00 +21°C° 0 mm 2 mps 757 mmHg 71%
07:00 +21°C° 0 mm 2 mps 758 mmHg 71%
08:00 +24°C° 0 mm 2 mps 758 mmHg 67%
09:00 +25°C° 0 mm 2 mps 758 mmHg 63%
10:00 +27°C° 0 mm 2 mps 758 mmHg 60%
11:00 +28°C° 0 mm 3 mps 758 mmHg 57%
12:00 +29°C° 0 mm 3 mps 758 mmHg 55%
13:00 +29°C° 0 mm 3 mps 758 mmHg 53%
14:00 +29°C° 0.1 mm 3 mps 758 mmHg 54%
15:00 +29°C° 0.1 mm 3 mps 757 mmHg 54%
16:00 +29°C° 0.1 mm 3 mps 757 mmHg 54%
17:00 +28°C° 0.1 mm 3 mps 757 mmHg 59%
18:00 +27°C° 0.1 mm 3 mps 757 mmHg 63%
19:00 +26°C° 0.1 mm 2 mps 757 mmHg 68%
20:00 +25°C° 0.2 mm 3 mps 758 mmHg 71%
21:00 +22°C° 0.2 mm 3 mps 758 mmHg 74%
22:00 +21°C° 0.2 mm 3 mps 758 mmHg 78%
23:00 +21°C° 0.4 mm 3 mps 758 mmHg 79%
Show more